Showing default

IONOSFERA-M 04, 64877

Orbit data source: Space-Track

IONOSFERA-M 04, 64877 is a payload satellite owned by VNIIEM (CIS) in SSO that was launched on Fri, 25 Jul 2025 UTC via a SOYUZ-2-1B launch vehicle from the Vostochny Cosmodrome (VOSTO). Payload-class satellites include a variety of spacecraft equipped with specific instruments for various scientific and technological missions. These include communications satellites like Starlink; space stations such as the ISS; scientific satellites like the Hubble; Earth observation satellites from companies like Planet Labs, Umbra, and HawkEye 360; GPS; miniature CubeSats for education and research; and military/defense satellites.

Loading next visibility...
Identifier
64877, 2025-155B
Orbit
SSO
Country
Flag of CISCIS
Related business
Manufacturer
VNIIEM
Mission
Operational Civil Science
Bus & Motor
IONOSFERA-M, Unknown motor
Mass
430 kg wet, 430 kg dry
Launch date (UTC)
2025-07-25 (8 months ago)
Launch vehicle
SOYUZ-2-1B
Launch site
Vostochny Cosmodrome (VOSTO)
Object type
Payload
Rocket body
Debris
Shape & HBR
Box + 1 Ant, 14.5 m
Radar Cross Section
2.359 m², Large (>1 m²)

Expand to show TLE details & history
Last TLE update: 7 hours ago

TLE from 7 hours ago
0 IONOSFERA-M 04
1 64877U 25155B   26073.95931010  .00000093  00000-0  61966-4 0  9990
2 64877  98.5927  38.2056 0001780  97.8621 262.2759 14.21469814 33017
Epoch: 2026-03-14T23:01Z
TLE epoch observation values (Epoch: 2026-03-14T23:01:24.392Z)
Latitude
-0.00001°
Longitude
-119.71904°
Altitude
823.479 km
Speed
7.441 km/s
True Right ascension
02h 32m 49s
True Declination
0° 00' 00"
Sunlit
Object was in daylight at epoch
Visualization orbit readout
Latitude
Unknown
Longitude
Unknown
Altitude
Unknown
Speed
Unknown
Apparent Right ascension
Unknown
Apparent Declination
Unknown
Sunlit
N/A
Visualization observer readout
Local Sidereal Time
10:45:16
Azimuth
Unknown
Elevation
Unknown
Doppler factor
Unknown
Orbital elements
Apogee altitude
818.818 km
Perigee altitude
816.257 km
Semi-major axis
7,195.674 km
Eccentricity
0.00018
Inclination
98.5927°
RAAN
38.2056°
Arg. of periapsis
97.8621°
True anomaly
262.25569°
Mean anomaly
262.2759°
Eccentric anomaly
262.26579°
Mean motion
3.55579 °/min
Orbital period
101.24 mins
BSTAR
0.000061966
Loading maneuver chart data...
Computing Atmospheric mass density...
Loading historical data...
Loading historical data...
Loading historical data...
Loading historical data...
Loading historical data...
Loading historical data...
Loading historical data...

Documentation

Showing up to 5 results
|